Location: Ay?beleni
(36.6500°N, 30.3000°E)
Time: 14:01:51
(UTC+00:00)

Hubble Space Telescope - Visible Passes

Search period start: 24 July 2021 00:00
Search period end: 03 August 2021 00:00
Orbit: 535 x 539 km, 28.5° (Epoch: 23 July)

Date Brightness Start Highest point End Pass type
(mag) Time Alt. Az. Time Alt. Az. Time Alt. Az.
24 Jul 2.5 19:08:49 10° SW 19:10:39 20° SSW 19:10:39 20° SSW visible
25 Jul 2.1 18:57:44 10° SW 19:00:25 24° SSW 19:00:25 24° SSW visible
26 Jul 1.9 18:46:42 10° WSW 18:50:04 26° S 18:50:04 26° S visible
27 Jul 1.9 18:35:40 10° WSW 18:39:05 25° S 18:39:38 24° S visible
28 Jul 2.1 18:24:40 10° WSW 18:28:02 24° S 18:29:09 21° SSE visible
29 Jul 2.2 18:13:43 10° WSW 18:16:58 23° S 18:18:37 18° SSE visible
30 Jul 2.4 18:02:47 10° WSW 18:05:53 21° S 18:08:06 14° SSE visible
31 Jul 2.6 17:51:54 10° WSW 17:54:49 19° SSW 17:57:34 11° SSE visible
01 Aug 2.8 17:41:05 10° SW 17:43:44 17° SSW 17:46:22 10° SSE visible
02 Aug 3.0 17:30:23 10° SW 17:32:38 14° SSW 17:34:53 10° SSE visible
